Temperature
23 23 22 22 20 19 20 21 22 21 21 21 21 20 19 18 18 18 18 18 18 18 18 18 18 18 18 18 18 18 18 18 18 18 18 18 18 18 18 18 18 18 18 18 18 18 18 18 18
24 23 22 22 20 19 21 21 21 21 21 21 21 20 19 18 18 19 18 18 18 18 18 18 18 18 18 18 18 18 18 18 18 18 18 18 18 18 18 18 18 18 18 18 18 18 18 18 18
24 23 23 20 20 20 21 22 21 22 22 22 21 20 19 18 18 19 19 18 18 18 18 18 18 18 18 18 18 18 18 18 18 18 18 18 18 18 18 18 18 18 18 18 18 18 18 18 18
24 23 23 20 22 22 22 22 22 22 22 21 20 20 19 19 19 19 19 19 19 19 18 18 18 18 18 18 18 18 18 18 18 18 18 18 18 18 18 18 18 18 18 18 18 18 18 18 18
24 24 21 21 22 23 23 23 22 22 21 21 20 19 18 19 19 19 19 19 19 19 19 18 18 18 18 18 18 18 18 18 18 18 18 18 18 18 18 18 18 18 18 18 18 18 18 18 18
24 21 20 21 23 23 23 23 22 21 21 21 20 19 18 19 19 19 19 19 19 19 19 19 18 18 18 18 18 18 18 18 18 18 18 18 18 18 18 18 18 18 18 18 18 18 18 17 17
23 20 21 22 22 23 23 23 22 21 21 21 20 18 18 19 19 19 19 19 19 19 19 19 18 18 18 18 18 18 18 18 18 18 18 18 18 18 18 18 18 18 18 18 18 18 18 17 17
25 21 22 22 23 23 23 23 22 22 21 21 21 19 19 19 19 19 19 19 19 19 19 19 18 18 18 18 18 18 18 18 18 18 18 18 18 18 18 18 18 18 18 18 18 18 18 18 17
25 21 22 23 23 23 23 23 23 22 22 21 21 21 20 19 19 19 19 19 19 19 19 19 19 18 18 18 18 18 18 18 18 18 18 18 18 18 18 18 18 18 18 18 18 18 17 17 17
24 22 23 24 23 23 23 23 23 22 21 21 21 21 20 19 19 19 19 19 19 19 19 19 19 18 18 18 18 18 18 18 18 18 18 18 18 18 18 18 18 18 18 18 18 18 18 18 18
24 24 24 25 25 24 24 23 23 22 21 21 21 21 20 20 19 19 19 19 19 19 19 19 19 18 18 18 18 18 18 18 18 18 18 18 18 18 18 18 18 18 18 18 18 18 18 18 18
25 25 26 25 25 25 24 23 23 22 23 23 22 21 21 20 20 20 20 19 19 19 19 19 19 18 18 18 18 18 18 18 18 18 18 18 18 18 18 18 18 18 18 18 18 18 18 18 18
25 25 26 25 25 25 24 23 23 23 23 22 22 21 21 21 20 20 20 20 19 19 19 19 19 19 18 18 18 18 18 18 18 18 18 18 18 18 18 18 18 18 18 18 18 18 18 18 18
25 25 25 25 25 25 23 23 23 22 23 22 21 21 21 21 21 20 20 20 20 19 19 19 19 19 18 18 18 18 18 18 18 18 18 18 18 18 18 18 18 18 18 18 18 18 18 18 18
26 24 24 24 25 24 24 23 22 23 22 22 21 21 21 21 21 21 21 20 20 20 19 19 19 19 19 18 18 18 18 18 18 18 18 18 18 18 18 18 18 18 18 18 18 18 18 18 18
25 24 24 25 24 24 24 23 23 23 22 21 21 21 21 21 21 21 21 21 20 20 20 19 19 19 19 19 18 18 18 18 18 18 18 18 18 18 18 18 18 18 18 18 18 18 18 17 17
23 23 24 24 24 24 23 23 22 23 22 21 21 21 21 21 21 21 21 21 20 20 20 19 19 19 19 19 18 18 18 18 18 18 18 18 18 18 18 18 18 18 18 18 18 18 18 18 17
24 24 24 24 24 24 23 22 22 22 22 22 22 22 22 22 22 22 21 21 21 20 20 20 19 19 19 19 19 18 18 18 18 18 18 18 18 18 18 18 18 18 18 18 18 17 17 17 17
25 24 24 24 24 24 23 22 22 22 22 22 22 22 22 22 22 22 21 21 21 20 20 20 20 19 19 19 19 19 18 18 18 18 18 18 18 18 18 18 18 18 18 18 17 17 17 17 17
25 24 24 24 24 24 22 22 22 22 22 22 22 22 22 22 22 22 22 21 21 21 20 20 20 19 19 19 19 19 18 18 18 18 18 18 18 18 18 18 18 18 18 18 17 17 17 17 17
25 24 24 24 24 23 23 22 22 22 22 22 23 23 23 23 22 22 22 22 21 21 21 20 20 20 19 19 19 19 18 18 18 18 18 18 18 18 18 18 18 18 18 17 17 17 17 17 17
25 25 25 24 23 22 23 22 22 21 21 21 22 22 23 23 23 23 22 22 22 22 21 21 20 20 20 19 19 19 19 19 19 18 18 18 18 18 18 18 17 17 17 17 17 17 17 17 17
25 24 24 23 22 21 22 22 21 21 21 21 21 22 23 23 23 23 23 23 23 22 22 21 21 20 20 19 19 19 19 19 18 18 18 18 18 18 18 18 17 17 17 17 17 17 17 17 17
24 23 22 20 20 21 22 22 21 20 21 21 22 23 23 23 24 24 23 23 23 22 22 21 21 20 20 19 19 19 19 19 19 18 18 18 18 18 18 18 17 17 17 17 17 17 17 17 17
23 21 21 21 20 21 21 21 21 22 22 22 22 23 23 24 24 23 23 23 23 23 22 22 21 21 20 20 19 19 19 19 19 19 18 18 18 18 18 18 17 17 17 17 17 17 17 17 17
22 22 21 22 21 20 20 21 22 23 23 23 23 23 23 23 24 24 24 23 23 23 23 22 22 21 21 20 20 19 19 19 19 19 19 18 18 18 18 17 17 17 17 17 17 17 17 17 17
22 21 21 19 20 20 20 20 21 22 22 22 22 22 23 23 24 24 24 24 23 23 23 23 22 22 21 21 20 20 19 19 19 19 19 18 18 18 18 17 17 17 17 17 17 17 17 17 17
22 19 18 19 20 21 22 22 21 23 22 21 21 22 22 23 23 24 24 24 24 24 23 23 22 22 22 21 21 20 20 19 19 19 19 18 18 18 18 17 17 17 17 17 17 17 17 17 17
22 20 18 17 19 20 21 22 22 22 21 21 21 22 22 23 23 24 24 24 24 23 23 23 22 22 22 21 21 20 20 20 19 19 19 19 18 18 18 18 17 17 17 17 17 17 16 16 16
23 21 18 20 20 18 20 21 23 21 21 21 21 22 23 23 24 24 24 24 23 23 23 23 22 22 22 21 21 21 20 20 20 19 19 19 18 18 18 18 18 17 17 17 17 17 16 16 16
Wind_Speed
8 7 4 2 5 6 4 3 2 3 3 3 5 6 6 4 2 1 2 2 2 1 1 4 6 8 9 10 10 11 12 13 14 14 15 15 15 15 14 15 15 16 16 16 17 17 17 17 17
6 5 2 3 5 4 3 3 3 3 4 5 6 6 6 4 3 3 1 1 2 2 2 4 7 8 9 9 10 11 12 12 13 14 14 14 14 14 15 16 15 16 16 16 17 17 17 16 16
6 3 3 5 4 4 3 2 5 5 4 3 4 5 4 3 2 2 2 3 3 3 4 5 8 8 9 9 10 10 11 11 12 13 13 14 14 14 14 15 15 15 15 16 16 16 16 16 15
3 2 4 5 4 1 4 5 6 6 4 5 4 5 4 3 2 3 5 4 4 3 3 5 8 8 9 9 10 9 10 10 12 13 13 13 13 13 13 14 14 14 14 15 16 15 15 15 14
2 4 6 5 3 2 4 6 5 4 3 5 5 5 4 4 6 7 6 5 5 3 3 5 8 8 9 9 9 8 8 10 11 12 12 12 12 13 13 13 13 13 14 14 15 15 15 14 13
4 5 5 2 3 3 4 4 5 6 6 5 5 5 3 3 5 6 5 4 4 3 3 4 7 8 9 9 9 8 9 10 10 11 11 12 12 12 13 13 13 13 13 13 14 14 14 13 12
4 5 4 3 2 2 3 4 4 6 6 4 4 5 2 1 4 6 6 5 4 4 4 4 4 5 7 8 8 9 9 9 9 10 10 10 11 11 12 12 12 12 12 12 12 12 12 11 11
4 5 4 2 3 2 4 4 4 6 5 5 4 6 4 4 6 7 6 5 4 4 3 3 4 4 4 4 6 7 8 8 8 9 9 9 9 10 10 10 10 10 10 10 10 10 10 9 9
4 5 2 4 6 4 5 5 3 4 7 3 3 4 6 10 9 7 5 4 2 2 2 2 2 3 3 3 4 5 6 6 6 6 7 7 6 6 7 8 9 9 8 8 8 8 7 7 7
4 4 6 5 6 7 7 6 6 5 5 3 6 7 10 11 9 7 5 4 3 2 1 1 1 1 1 2 3 3 4 5 4 4 4 5 4 5 5 6 6 7 7 6 6 5 5 5 4
4 5 3 3 5 8 7 5 4 9 4 5 9 11 12 10 8 7 6 4 4 2 2 2 1 1 1 1 2 2 3 3 3 3 3 3 3 3 3 3 3 3 4 4 4 4 3 4 3
3 1 3 5 6 7 7 6 5 4 6 7 11 13 12 11 9 8 7 5 3 3 2 2 2 2 1 1 1 1 1 1 1 1 0 1 1 1 1 1 1 2 2 2 2 2 3 3 3
3 2 4 7 9 7 8 6 5 2 6 10 11 12 11 10 8 7 6 5 4 4 3 2 3 2 2 2 1 1 1 1 1 1 0 1 1 1 1 1 1 1 2 1 1 2 2 2 2
4 6 7 7 8 5 7 4 5 3 8 10 11 10 10 10 9 6 6 6 5 5 5 3 3 3 3 2 2 1 1 1 1 1 1 2 2 1 1 1 1 1 1 2 2 1 2 1 2
6 8 8 5 4 4 7 3 2 6 10 10 10 9 9 8 8 8 8 8 7 6 5 5 5 4 4 3 2 2 1 1 1 1 1 2 2 2 2 1 1 1 2 3 2 2 3 2 2
6 6 3 1 3 4 7 3 4 8 10 10 9 9 8 7 8 7 7 7 7 6 6 5 5 5 4 3 3 2 2 2 1 0 1 2 2 3 2 2 1 2 3 3 2 2 3 2 2
5 3 2 2 4 5 5 4 5 8 10 9 9 8 8 7 7 7 7 7 7 6 6 6 5 5 5 4 3 3 2 1 1 1 1 1 1 2 3 2 1 3 3 2 2 3 3 3 3
4 4 3 5 5 6 5 4 5 9 9 9 8 8 8 9 9 7 7 7 6 6 5 6 5 5 5 4 3 3 2 1 1 1 0 1 1 3 3 2 2 3 3 2 3 3 3 2 2
6 5 4 4 3 5 5 5 7 9 9 9 9 9 9 10 7 6 7 7 6 5 5 5 5 5 4 3 2 2 1 0 1 1 1 1 2 3 3 2 2 2 3 3 3 3 4 3 3
5 4 2 1 2 3 3 3 5 9 12 11 12 11 11 8 6 7 7 7 8 7 7 6 6 6 5 3 2 2 2 1 1 1 1 1 2 2 3 3 2 2 3 3 3 4 2 2 2
3 6 5 4 3 4 3 3 3 5 6 7 8 9 10 12 12 10 9 9 8 8 8 8 7 6 5 4 3 3 3 2 2 1 1 1 1 2 2 3 2 2 3 3 3 4 4 2 1
4 6 6 6 5 1 2 3 6 5 6 9 10 10 11 11 11 10 10 10 10 10 8 7 7 6 5 5 4 4 3 2 2 1 0 1 2 2 2 3 3 2 2 2 3 3 2 3 2
4 3 6 5 5 2 1 2 7 2 7 12 12 12 12 12 13 13 13 12 11 9 8 7 7 6 5 5 6 5 3 2 1 1 2 1 2 2 2 2 2 2 1 1 2 2 2 2 3
7 8 8 7 5 1 3 3 7 5 8 8 11 12 12 12 12 12 10 9 8 8 8 8 7 6 6 6 6 6 6 4 3 3 2 1 1 1 1 1 1 1 1 1 1 2 2 2 2
7 7 4 4 3 5 2 3 9 8 7 9 10 12 11 11 11 11 11 11 10 10 10 9 9 8 7 7 6 6 6 6 5 4 3 2 1 0 1 1 1 1 1 1 1 2 1 2 2
6 9 9 6 6 5 1 6 8 6 5 5 6 8 9 11 11 12 13 13 12 12 11 10 10 9 8 8 6 5 5 4 4 4 3 3 2 2 1 1 1 1 1 1 1 1 1 1 1
7 4 7 7 3 1 5 7 9 3 2 2 4 6 10 12 12 12 12 12 12 12 12 12 11 9 8 8 7 6 5 5 4 4 3 3 2 2 2 2 2 1 1 1 2 1 1 1 1
6 9 7 7 6 3 5 5 5 5 5 3 5 7 9 9 9 10 11 12 12 11 10 10 10 10 9 8 7 6 5 5 4 4 4 3 2 2 2 2 2 1 1 1 2 2 1 2 1
5 5 6 5 6 7 4 7 7 9 8 7 8 7 7 8 9 10 10 10 9 9 9 10 9 9 8 8 7 6 5 5 5 4 4 3 3 3 3 2 2 2 1 1 2 2 2 2 1
4 7 7 6 4 5 5 8 5 6 6 6 6 6 6 6 7 7 8 8 9 10 10 10 9 9 8 8 7 6 5 5 5 5 4 4 3 3 3 3 2 2 2 2 2 2 2 2 2
Wind_Direction
158 146 146 118 58 50 33 6 74 72 61 55 76 79 86 66 78 134 309 86 76 57 87 103 97 93 92 91 88 88 88 88 94 97 99 102 103 103 104 109 110 110 109 110 111 114 114 116 117
150 152 137 64 75 63 1 3 72 78 127 116 75 69 67 54 50 95 69 49 83 92 98 110 108 100 97 95 91 90 89 90 95 99 101 105 105 104 104 108 108 109 109 110 111 113 114 115 116
159 166 87 69 85 137 155 136 118 107 113 78 70 60 67 70 92 132 167 123 78 75 103 120 114 106 100 97 93 90 90 91 97 100 102 105 107 106 106 107 108 108 109 111 111 113 114 115 116
143 65 55 65 67 189 161 157 138 124 78 55 82 64 57 60 114 133 127 118 100 73 98 122 119 114 105 99 95 93 93 94 100 104 102 104 106 107 108 109 109 109 109 111 110 111 112 114 115
77 74 55 46 26 39 115 140 134 105 80 68 80 79 40 22 87 108 121 120 114 95 94 113 116 111 108 104 98 95 96 103 103 104 103 102 104 107 108 109 109 109 109 111 111 108 109 111 113
63 67 73 62 36 56 105 111 104 93 91 87 85 87 47 66 100 116 120 110 107 101 92 100 111 110 106 104 100 94 100 107 102 103 104 103 104 106 106 105 107 108 109 111 111 108 106 105 105
102 89 109 122 94 104 145 112 116 116 110 111 107 92 77 91 118 111 101 93 87 83 78 74 85 101 105 103 100 95 101 100 98 96 99 101 103 106 106 103 107 108 107 108 110 109 107 106 106
125 98 86 111 139 146 137 113 113 117 107 118 109 127 167 182 125 102 87 80 82 75 65 67 70 76 81 90 95 93 97 100 94 93 94 95 99 104 107 106 109 111 109 109 110 109 108 106 105
99 79 148 182 168 156 138 121 122 86 106 111 98 130 149 134 122 106 90 75 84 105 67 68 82 81 83 88 93 88 84 86 84 80 82 81 79 88 98 106 110 111 110 110 109 106 106 105 101
94 131 206 192 169 146 138 131 137 106 107 90 82 91 118 130 134 138 144 155 167 188 183 120 106 107 99 93 78 61 57 57 58 58 60 68 72 83 93 97 101 103 105 106 104 99 96 95 95
136 171 185 135 136 131 129 128 114 125 148 175 153 144 142 145 151 160 170 175 187 194 182 167 165 137 121 85 86 78 62 56 50 43 43 59 60 64 66 62 57 63 72 73 74 68 77 90 92
133 136 133 129 124 125 132 126 113 153 188 165 154 150 152 160 170 178 183 186 174 170 194 178 165 145 154 140 109 119 103 88 72 17 9 81 62 60 62 59 48 55 67 63 62 69 64 73 82
90 73 73 104 105 109 105 112 124 133 121 127 137 148 162 172 179 186 183 177 166 178 199 190 166 165 163 148 162 129 144 170 181 192 225 153 123 97 98 92 87 98 107 97 83 84 78 66 65
94 78 74 83 93 104 110 95 100 147 131 135 149 164 175 180 179 176 175 176 177 182 186 179 169 172 158 151 146 136 147 174 165 177 189 159 153 149 125 109 107 121 137 131 117 108 91 78 80
95 83 59 56 85 114 108 78 172 161 144 152 166 174 181 184 179 184 186 183 183 180 173 169 170 159 151 151 144 127 140 155 146 178 160 145 148 157 146 129 127 143 130 122 106 89 89 90 81
63 74 90 279 114 127 123 201 205 159 157 170 179 181 184 189 191 193 186 182 177 172 168 174 168 152 152 145 134 121 123 123 114 61 97 134 152 156 144 133 146 147 128 117 110 107 97 87 83
47 115 177 210 176 148 151 209 192 168 170 182 188 188 187 190 198 198 188 181 174 174 168 164 156 151 151 137 120 107 98 88 76 40 39 123 155 150 140 137 134 124 112 108 125 116 121 111 94
192 175 197 208 196 154 169 215 185 176 181 191 193 192 193 199 204 191 184 178 175 171 165 159 152 146 133 116 101 86 73 60 54 41 36 118 132 133 129 127 118 122 116 111 117 117 108 110 104
160 162 192 227 194 158 186 203 195 184 189 197 197 198 203 211 204 182 178 172 167 167 169 168 162 157 141 126 126 121 126 57 24 13 47 117 122 125 127 125 115 124 131 136 132 122 109 100 106
140 153 196 269 119 144 174 229 212 195 202 202 200 201 204 201 195 189 181 177 178 180 180 182 181 171 168 157 146 143 136 129 106 28 48 110 129 136 145 135 134 129 126 125 131 130 123 126 123
178 185 192 174 83 61 90 327 235 225 213 215 212 205 203 199 197 194 188 188 184 188 188 190 189 179 176 161 125 102 76 52 51 40 18 23 123 138 133 129 126 126 138 156 162 156 153 164 165
228 216 170 142 117 349 111 270 274 226 222 222 217 206 206 203 197 195 192 193 196 198 187 185 182 178 174 159 154 156 162 177 202 177 121 23 63 106 126 128 128 134 147 167 186 174 168 163 177
189 105 111 110 113 60 37 170 285 209 232 234 221 212 208 200 195 196 197 199 199 190 181 182 175 176 174 166 167 166 173 182 160 126 105 64 46 68 106 127 131 137 153 170 174 165 167 172 177
119 76 61 52 69 357 245 180 275 227 221 231 219 215 210 200 197 196 194 187 188 180 175 175 172 180 177 173 175 179 181 176 163 161 155 123 53 36 61 123 133 148 165 181 186 176 173 183 176
102 96 50 17 11 252 259 209 251 248 227 219 217 213 203 194 191 188 185 185 186 182 181 179 177 186 181 179 184 188 185 180 182 182 179 174 173 224 264 166 152 179 192 175 159 153 168 182 184
167 141 155 180 210 259 286 237 257 267 250 227 214 194 188 190 191 192 191 189 190 188 184 181 183 189 182 180 185 187 181 179 186 185 180 183 194 211 207 166 160 158 147 139 133 131 162 162 184
137 160 155 132 143 180 270 281 301 286 306 211 189 179 190 193 192 193 190 189 190 189 187 184 184 188 185 184 180 181 178 178 183 177 175 183 191 186 166 161 154 144 134 136 131 122 135 126 134
134 141 107 121 144 214 281 274 255 262 243 217 198 200 201 193 191 191 191 191 190 188 184 179 182 187 185 180 182 183 177 180 178 166 170 174 175 157 146 146 143 124 111 115 120 113 109 109 91
100 93 103 115 147 156 220 262 227 225 220 210 210 205 196 192 191 193 190 186 180 176 176 178 180 182 180 179 177 171 170 172 173 174 181 178 170 163 160 157 144 138 126 117 122 127 119 113 97
143 152 143 147 191 172 177 258 265 232 225 204 201 196 190 184 180 180 180 172 171 177 179 181 181 184 185 176 169 170 169 169 174 181 182 172 170 168 159 146 139 138 126 121 127 125 116 119 115
Height
1481 1482 1483 1485 1489 1502 1507 1501 1496 1497 1498 1499 1498 1499 1501 1504 1507 1511 1507 1504 1504 1503 1503 1503 1504 1504 1504 1504 1504 1504 1504 1504 1504 1504 1504 1505 1506 1507 1508 1509 1512 1513 1515 1516 1518 1519 1521 1523 1525
1482 1483 1486 1486 1498 1516 1511 1501 1499 1498 1499 1500 1500 1502 1503 1505 1506 1506 1505 1506 1506 1505 1505 1505 1506 1506 1507 1507 1507 1507 1507 1506 1507 1507 1507 1508 1509 1510 1512 1513 1514 1516 1518 1519 1521 1522 1524 1526 1528
1483 1484 1487 1491 1504 1513 1509 1501 1500 1499 1500 1501 1502 1504 1506 1507 1507 1508 1507 1507 1508 1507 1507 1507 1508 1509 1509 1509 1509 1509 1509 1509 1510 1510 1511 1511 1512 1514 1515 1516 1518 1519 1520 1522 1524 1525 1527 1528 1530
1484 1486 1488 1497 1504 1502 1500 1500 1499 1500 1501 1502 1504 1507 1509 1510 1510 1510 1509 1509 1510 1510 1510 1511 1511 1511 1511 1512 1512 1512 1512 1512 1512 1513 1513 1514 1515 1516 1518 1519 1521 1522 1524 1525 1526 1528 1529 1531 1533
1485 1487 1496 1506 1504 1499 1498 1499 1500 1501 1503 1505 1505 1509 1511 1512 1512 1511 1511 1512 1512 1513 1513 1514 1514 1514 1514 1514 1515 1514 1514 1515 1515 1516 1517 1517 1518 1519 1521 1522 1524 1525 1527 1528 1530 1531 1532 1534 1536
1487 1489 1507 1513 1506 1500 1500 1501 1502 1503 1505 1507 1508 1510 1514 1514 1514 1514 1514 1514 1515 1516 1516 1516 1517 1517 1517 1517 1517 1517 1517 1517 1518 1519 1520 1521 1522 1523 1524 1526 1527 1528 1530 1531 1532 1534 1535 1536 1538
1488 1495 1506 1507 1507 1504 1502 1502 1504 1505 1507 1509 1510 1512 1515 1516 1517 1516 1516 1517 1517 1518 1519 1519 1519 1520 1520 1520 1520 1520 1520 1520 1521 1522 1523 1524 1525 1526 1527 1529 1530 1531 1533 1534 1535 1536 1538 1539 1541
1488 1495 1504 1507 1507 1505 1502 1504 1505 1506 1508 1511 1511 1513 1515 1517 1518 1518 1519 1519 1520 1521 1522 1522 1523 1523 1523 1523 1524 1524 1524 1524 1524 1525 1526 1527 1528 1529 1530 1532 1533 1534 1535 1536 1538 1539 1540 1542 1543
1489 1500 1509 1505 1505 1503 1502 1504 1507 1508 1509 1512 1513 1514 1516 1518 1519 1520 1520 1521 1522 1523 1524 1525 1525 1526 1526 1526 1527 1527 1527 1528 1528 1529 1529 1530 1531 1532 1533 1534 1536 1537 1538 1539 1540 1541 1543 1544 1545
1489 1503 1500 1496 1496 1498 1502 1504 1507 1509 1511 1513 1514 1516 1518 1519 1521 1522 1522 1523 1524 1525 1526 1527 1528 1528 1529 1529 1530 1530 1530 1531 1532 1532 1533 1533 1534 1535 1536 1537 1538 1539 1540 1541 1542 1543 1545 1546 1547
1489 1495 1492 1493 1494 1497 1501 1505 1507 1509 1513 1513 1513 1516 1519 1521 1522 1524 1525 1525 1526 1527 1528 1529 1530 1531 1531 1532 1533 1533 1534 1534 1535 1535 1536 1536 1537 1538 1539 1540 1541 1541 1542 1543 1544 1546 1547 1548 1549
1489 1490 1490 1493 1495 1499 1502 1505 1508 1510 1511 1512 1514 1517 1519 1521 1523 1525 1526 1527 1528 1529 1530 1531 1532 1533 1534 1534 1535 1535 1536 1537 1537 1538 1538 1539 1540 1540 1541 1542 1543 1544 1545 1545 1546 1547 1548 1549 1550
1490 1491 1493 1494 1497 1500 1504 1506 1509 1511 1512 1514 1516 1519 1520 1522 1524 1526 1528 1529 1530 1531 1532 1533 1534 1535 1536 1536 1537 1537 1538 1539 1539 1540 1540 1541 1541 1542 1543 1543 1544 1545 1546 1547 1548 1549 1550 1550 1551
1491 1493 1496 1498 1500 1503 1506 1509 1511 1513 1514 1516 1518 1520 1522 1523 1525 1527 1528 1530 1531 1532 1533 1534 1535 1536 1537 1538 1539 1539 1540 1541 1541 1542 1542 1542 1543 1543 1544 1545 1545 1546 1547 1548 1549 1550 1550 1551 1552
1491 1496 1501 1502 1502 1505 1508 1513 1512 1513 1515 1517 1519 1520 1522 1524 1526 1527 1529 1530 1532 1533 1534 1535 1536 1538 1538 1539 1540 1541 1542 1542 1543 1543 1543 1544 1544 1544 1545 1546 1546 1547 1548 1549 1549 1550 1551 1551 1552
1495 1504 1511 1505 1504 1506 1511 1519 1512 1513 1515 1517 1519 1521 1522 1524 1526 1528 1529 1531 1532 1534 1535 1536 1537 1538 1539 1540 1541 1542 1543 1543 1543 1544 1544 1545 1545 1546 1546 1547 1547 1548 1549 1549 1550 1550 1551 1551 1552
1507 1515 1514 1509 1504 1505 1510 1515 1511 1513 1515 1516 1518 1520 1522 1524 1526 1527 1529 1531 1533 1534 1536 1537 1538 1539 1540 1541 1542 1543 1543 1544 1544 1544 1545 1545 1546 1546 1547 1547 1548 1548 1549 1549 1550 1550 1551 1551 1552
1513 1514 1513 1511 1504 1505 1510 1512 1510 1511 1514 1516 1518 1519 1521 1522 1524 1527 1529 1531 1533 1534 1536 1537 1538 1539 1540 1541 1542 1543 1544 1544 1545 1545 1545 1546 1546 1547 1547 1548 1548 1549 1549 1550 1550 1551 1551 1552 1552
1500 1507 1511 1507 1501 1505 1509 1511 1509 1510 1513 1514 1516 1518 1519 1521 1524 1526 1528 1530 1532 1534 1535 1537 1538 1539 1540 1541 1542 1543 1544 1545 1545 1545 1546 1546 1546 1547 1548 1548 1549 1549 1550 1550 1550 1551 1551 1552 1552
1499 1506 1508 1504 1500 1505 1510 1511 1508 1508 1508 1510 1512 1514 1516 1519 1522 1524 1526 1529 1531 1532 1534 1536 1538 1539 1540 1542 1543 1543 1544 1544 1545 1546 1546 1546 1547 1547 1548 1549 1549 1550 1550 1550 1550 1551 1551 1551 1552
1499 1504 1505 1507 1504 1506 1510 1515 1510 1507 1508 1510 1511 1512 1514 1516 1519 1521 1524 1526 1529 1531 1533 1535 1537 1539 1540 1541 1542 1543 1544 1544 1545 1546 1546 1547 1547 1548 1548 1548 1549 1549 1549 1549 1550 1550 1551 1551 1551
1503 1494 1497 1503 1512 1521 1516 1531 1514 1508 1507 1506 1507 1508 1510 1513 1516 1518 1521 1524 1526 1529 1532 1534 1536 1538 1539 1541 1542 1543 1543 1544 1545 1546 1546 1547 1547 1548 1548 1548 1549 1549 1549 1549 1549 1550 1550 1550 1550
1494 1492 1498 1505 1514 1523 1521 1529 1520 1509 1509 1504 1502 1503 1505 1509 1512 1515 1518 1521 1524 1527 1530 1532 1535 1537 1538 1540 1541 1542 1543 1544 1545 1545 1546 1546 1547 1548 1548 1548 1548 1548 1548 1548 1549 1549 1549 1549 1549
1490 1498 1505 1514 1522 1535 1524 1529 1523 1511 1503 1498 1496 1498 1501 1504 1508 1511 1515 1519 1522 1525 1528 1530 1533 1535 1537 1539 1540 1541 1542 1543 1544 1545 1546 1546 1547 1547 1548 1548 1548 1548 1548 1548 1548 1548 1548 1548 1548
1492 1512 1533 1537 1544 1540 1524 1526 1519 1496 1492 1491 1491 1492 1496 1500 1504 1508 1511 1515 1518 1521 1525 1528 1530 1533 1535 1537 1538 1540 1542 1543 1544 1544 1545 1546 1547 1547 1547 1547 1547 1547 1547 1547 1547 1547 1547 1547 1547
1495 1505 1530 1543 1546 1538 1526 1526 1505 1489 1487 1487 1487 1488 1492 1496 1500 1503 1507 1511 1515 1518 1522 1525 1528 1531 1533 1535 1537 1539 1541 1542 1543 1544 1545 1546 1546 1546 1547 1547 1547 1546 1546 1546 1546 1546 1546 1546 1546
1495 1503 1505 1525 1532 1538 1531 1518 1499 1487 1486 1485 1486 1487 1489 1492 1496 1499 1503 1508 1512 1515 1519 1522 1526 1529 1531 1534 1536 1537 1539 1540 1542 1543 1544 1545 1545 1546 1546 1546 1546 1546 1546 1546 1546 1545 1545 1545 1545
1485 1496 1512 1526 1540 1541 1529 1520 1511 1493 1488 1486 1485 1486 1487 1490 1493 1497 1500 1504 1508 1512 1516 1520 1524 1527 1530 1532 1534 1536 1538 1539 1541 1542 1543 1544 1544 1545 1545 1545 1545 1545 1545 1545 1545 1544 1544 1544 1544
1492 1499 1509 1521 1522 1536 1537 1522 1489 1487 1483 1483 1483 1483 1485 1488 1491 1494 1498 1502 1506 1510 1514 1518 1521 1524 1528 1530 1532 1535 1536 1538 1539 1540 1541 1542 1543 1544 1544 1544 1545 1544 1544 1544 1544 1543 1543 1543 1543
1483 1492 1503 1515 1522 1526 1528 1515 1479 1479 1478 1479 1481 1483 1484 1486 1489 1492 1496 1500 1503 1507 1511 1515 1519 1522 1525 1528 1531 1533 1535 1536 1538 1539 1539 1541 1542 1543 1543 1543 1543 1543 1543 1543 1543 1542 1542 1542 1541